Time,TemperatureF,DewpointF,PressureIn,WindDirection,WindDirectionDegrees,WindSpeedMPH,WindSpeedGustMPH,Humidity,HourlyPrecipIn,Conditions,Clouds,dailyrainin,SoftwareType,DateUTC
2013-09-30 00:00:00,59.0,55.8,30.05,N/A,-737280,0.0,-999.0,89,0.00,,,0.00,Wunderground v.1.15,2013-09-30 04:00:00,
2013-09-30 00:05:00,59.0,55.8,30.05,N/A,-737280,0.0,-999.0,89,0.00,,,0.00,Wunderground v.1.15,2013-09-30 04:05:00,
2013-09-30 00:10:00,59.0,55.8,30.05,N/A,-737280,0.0,-999.0,89,0.00,,,0.00,Wunderground v.1.15,2013-09-30 04:10:00,
2013-09-30 00:15:00,59.0,55.8,30.05,N/A,-737280,0.0,-999.0,89,0.00,,,0.00,Wunderground v.1.15,2013-09-30 04:15:00,
2013-09-30 00:20:00,59.0,55.8,30.05,N/A,-737280,0.0,-999.0,89,0.00,,,0.00,Wunderground v.1.15,2013-09-30 04:20:00,
2013-09-30 00:25:00,59.0,55.8,30.05,N/A,-737280,0.0,-999.0,89,0.00,,,0.00,Wunderground v.1.15,2013-09-30 04:25:00,
2013-09-30 00:30:00,59.0,55.8,30.05,N/A,-737280,0.0,-999.0,89,0.00,,,0.00,Wunderground v.1.15,2013-09-30 04:30:00,
2013-09-30 00:35:00,59.0,55.8,30.05,N/A,-737280,0.0,-999.0,89,0.00,,,0.00,Wunderground v.1.15,2013-09-30 04:35:00,
2013-09-30 00:40:00,59.0,55.8,30.05,N/A,-737280,0.0,-999.0,89,0.00,,,0.00,Wunderground v.1.15,2013-09-30 04:40:00,
2013-09-30 00:45:00,58.8,55.6,30.06,N/A,-737280,0.0,-999.0,89,0.00,,,0.00,Wunderground v.1.15,2013-09-30 04:45:00,
2013-09-30 00:50:00,58.8,55.6,30.06,N/A,-737280,0.0,-999.0,89,0.00,,,0.00,Wunderground v.1.15,2013-09-30 04:50:00,
2013-09-30 00:55:00,58.8,55.6,30.06,N/A,-737280,0.0,-999.0,89,0.00,,,0.00,Wunderground v.1.15,2013-09-30 04:55:00,
2013-09-30 01:00:00,58.8,55.6,30.06,N/A,-737280,0.0,-999.0,89,0.00,,,0.00,Wunderground v.1.15,2013-09-30 05:00:00,
2013-09-30 01:05:00,58.8,55.6,30.06,N/A,-737280,0.0,-999.0,89,0.00,,,0.00,Wunderground v.1.15,2013-09-30 05:05:00,
2013-09-30 01:10:00,58.8,55.6,30.06,N/A,-737280,0.0,-999.0,89,0.00,,,0.00,Wunderground v.1.15,2013-09-30 05:10:00,
2013-09-30 01:15:00,57.9,54.4,30.07,N/A,-737280,0.0,-999.0,88,0.00,,,0.00,Wunderground v.1.15,2013-09-30 05:15:00,
2013-09-30 01:20:00,57.9,54.4,30.07,N/A,-737280,0.0,-999.0,88,0.00,,,0.00,Wunderground v.1.15,2013-09-30 05:20:00,
2013-09-30 01:25:00,57.9,54.4,30.07,N/A,-737280,0.0,-999.0,88,0.00,,,0.00,Wunderground v.1.15,2013-09-30 05:25:00,
2013-09-30 01:30:00,57.9,54.4,30.07,N/A,-737280,0.0,-999.0,88,0.00,,,0.00,Wunderground v.1.15,2013-09-30 05:30:00,
2013-09-30 01:35:00,57.9,54.4,30.07,N/A,-737280,0.0,-999.0,88,0.00,,,0.00,Wunderground v.1.15,2013-09-30 05:35:00,
2013-09-30 01:40:00,57.9,54.4,30.07,N/A,-737280,0.0,-999.0,88,0.00,,,0.00,Wunderground v.1.15,2013-09-30 05:40:00,
2013-09-30 01:45:00,57.2,54.0,30.06,N/A,-737280,0.0,-999.0,89,0.00,,,0.00,Wunderground v.1.15,2013-09-30 05:45:00,
2013-09-30 01:50:00,57.2,54.0,30.06,N/A,-737280,0.0,-999.0,89,0.00,,,0.00,Wunderground v.1.15,2013-09-30 05:50:00,
2013-09-30 01:55:00,57.2,54.0,30.06,N/A,-737280,0.0,-999.0,89,0.00,,,0.00,Wunderground v.1.15,2013-09-30 05:55:00,
2013-09-30 02:00:00,57.2,54.0,30.06,N/A,-737280,0.0,-999.0,89,0.00,,,0.00,Wunderground v.1.15,2013-09-30 06:00:00,
2013-09-30 02:05:00,57.2,54.0,30.06,N/A,-737280,0.0,-999.0,89,0.00,,,0.00,Wunderground v.1.15,2013-09-30 06:05:00,
2013-09-30 02:10:00,57.2,54.0,30.06,N/A,-737280,0.0,-999.0,89,0.00,,,0.00,Wunderground v.1.15,2013-09-30 06:10:00,
2013-09-30 02:15:00,58.2,55.6,30.06,N/A,-737280,0.0,-999.0,91,0.00,,,0.00,Wunderground v.1.15,2013-09-30 06:15:00,
2013-09-30 02:20:00,58.2,55.6,30.06,N/A,-737280,0.0,-999.0,91,0.00,,,0.00,Wunderground v.1.15,2013-09-30 06:20:00,
2013-09-30 02:25:00,58.2,55.6,30.06,N/A,-737280,0.0,-999.0,91,0.00,,,0.00,Wunderground v.1.15,2013-09-30 06:25:00,
2013-09-30 02:30:00,58.2,55.6,30.06,N/A,-737280,0.0,-999.0,91,0.00,,,0.00,Wunderground v.1.15,2013-09-30 06:30:00,
2013-09-30 02:35:00,58.2,55.6,30.06,N/A,-737280,0.0,-999.0,91,0.00,,,0.00,Wunderground v.1.15,2013-09-30 06:35:00,
2013-09-30 02:40:00,58.2,55.6,30.06,N/A,-737280,0.0,-999.0,91,0.00,,,0.00,Wunderground v.1.15,2013-09-30 06:40:00,
2013-09-30 02:45:00,58.3,55.7,30.05,N/A,-737280,0.0,-999.0,91,0.00,,,0.00,Wunderground v.1.15,2013-09-30 06:45:00,
2013-09-30 02:50:00,58.3,55.7,30.05,N/A,-737280,0.0,-999.0,91,0.00,,,0.00,Wunderground v.1.15,2013-09-30 06:50:00,
2013-09-30 02:55:00,58.3,55.7,30.05,N/A,-737280,0.0,-999.0,91,0.00,,,0.00,Wunderground v.1.15,2013-09-30 06:55:00,
2013-09-30 03:00:00,58.3,55.7,30.05,N/A,-737280,0.0,-999.0,91,0.00,,,0.00,Wunderground v.1.15,2013-09-30 07:00:00,
2013-09-30 03:05:00,58.3,55.7,30.05,N/A,-737280,0.0,-999.0,91,0.00,,,0.00,Wunderground v.1.15,2013-09-30 07:05:00,
2013-09-30 03:10:00,58.3,55.7,30.05,N/A,-737280,0.0,-999.0,91,0.00,,,0.00,Wunderground v.1.15,2013-09-30 07:10:00,
2013-09-30 03:15:00,57.9,55.3,30.05,N/A,-737280,0.0,-999.0,91,0.00,,,0.00,Wunderground v.1.15,2013-09-30 07:15:00,
2013-09-30 03:20:00,57.9,55.3,30.05,N/A,-737280,0.0,-999.0,91,0.00,,,0.00,Wunderground v.1.15,2013-09-30 07:20:00,
2013-09-30 03:25:00,57.9,55.3,30.05,N/A,-737280,0.0,-999.0,91,0.00,,,0.00,Wunderground v.1.15,2013-09-30 07:25:00,
2013-09-30 03:30:00,57.9,55.3,30.05,N/A,-737280,0.0,-999.0,91,0.00,,,0.00,Wunderground v.1.15,2013-09-30 07:30:00,
2013-09-30 03:35:00,57.9,55.3,30.05,N/A,-737280,0.0,-999.0,91,0.00,,,0.00,Wunderground v.1.15,2013-09-30 07:35:00,
2013-09-30 03:40:00,57.9,55.3,30.05,N/A,-737280,0.0,-999.0,91,0.00,,,0.00,Wunderground v.1.15,2013-09-30 07:40:00,
2013-09-30 03:45:00,57.1,54.8,30.03,N/A,-737280,0.0,-999.0,92,0.00,,,0.00,Wunderground v.1.15,2013-09-30 07:45:00,
2013-09-30 03:50:00,57.1,54.8,30.03,N/A,-737280,0.0,-999.0,92,0.00,,,0.00,Wunderground v.1.15,2013-09-30 07:50:00,
2013-09-30 03:55:00,57.1,54.8,30.03,N/A,-737280,0.0,-999.0,92,0.00,,,0.00,Wunderground v.1.15,2013-09-30 07:55:00,
2013-09-30 04:00:00,57.1,54.8,30.03,N/A,-737280,0.0,-999.0,92,0.00,,,0.00,Wunderground v.1.15,2013-09-30 08:00:00,
2013-09-30 04:05:00,57.1,54.8,30.03,N/A,-737280,0.0,-999.0,92,0.00,,,0.00,Wunderground v.1.15,2013-09-30 08:05:00,
2013-09-30 04:10:00,57.1,54.8,30.03,N/A,-737280,0.0,-999.0,92,0.00,,,0.00,Wunderground v.1.15,2013-09-30 08:10:00,
2013-09-30 04:15:00,57.2,54.9,30.05,NW,315,0.0,-999.0,92,0.00,,,0.00,Wunderground v.1.15,2013-09-30 08:15:00,
2013-09-30 04:20:00,57.2,54.9,30.05,NW,315,0.0,-999.0,92,0.00,,,0.00,Wunderground v.1.15,2013-09-30 08:20:00,
2013-09-30 04:25:00,57.2,54.9,30.05,NW,315,0.0,-999.0,92,0.00,,,0.00,Wunderground v.1.15,2013-09-30 08:25:00,
2013-09-30 04:30:00,57.2,54.9,30.05,NW,315,0.0,-999.0,92,0.00,,,0.00,Wunderground v.1.15,2013-09-30 08:30:00,
2013-09-30 04:35:00,57.2,54.9,30.05,NW,315,0.0,-999.0,92,0.00,,,0.00,Wunderground v.1.15,2013-09-30 08:35:00,
2013-09-30 04:40:00,57.2,54.9,30.05,NW,315,0.0,-999.0,92,0.00,,,0.00,Wunderground v.1.15,2013-09-30 08:40:00,
2013-09-30 04:45:00,56.6,54.0,30.05,N/A,-737280,0.0,-999.0,91,0.00,,,0.00,Wunderground v.1.15,2013-09-30 08:45:00,
2013-09-30 04:50:00,56.6,54.0,30.05,N/A,-737280,0.0,-999.0,91,0.00,,,0.00,Wunderground v.1.15,2013-09-30 08:50:00,
2013-09-30 04:55:00,56.6,54.0,30.05,N/A,-737280,0.0,-999.0,91,0.00,,,0.00,Wunderground v.1.15,2013-09-30 08:55:00,
2013-09-30 05:00:00,56.6,54.0,30.05,N/A,-737280,0.0,-999.0,91,0.00,,,0.00,Wunderground v.1.15,2013-09-30 09:00:00,
2013-09-30 05:05:00,56.6,54.0,30.05,N/A,-737280,0.0,-999.0,91,0.00,,,0.00,Wunderground v.1.15,2013-09-30 09:05:00,
2013-09-30 05:10:00,56.6,54.0,30.05,N/A,-737280,0.0,-999.0,91,0.00,,,0.00,Wunderground v.1.15,2013-09-30 09:10:00,
2013-09-30 05:15:00,55.9,53.6,30.06,N/A,-737280,0.0,-999.0,92,0.00,,,0.00,Wunderground v.1.15,2013-09-30 09:15:00,
2013-09-30 05:20:00,55.9,53.6,30.06,N/A,-737280,0.0,-999.0,92,0.00,,,0.00,Wunderground v.1.15,2013-09-30 09:20:00,
2013-09-30 05:25:00,55.9,53.6,30.06,N/A,-737280,0.0,-999.0,92,0.00,,,0.00,Wunderground v.1.15,2013-09-30 09:25:00,
2013-09-30 05:30:00,55.9,53.6,30.06,N/A,-737280,0.0,-999.0,92,0.00,,,0.00,Wunderground v.1.15,2013-09-30 09:30:00,
2013-09-30 05:35:00,55.9,53.6,30.06,N/A,-737280,0.0,-999.0,92,0.00,,,0.00,Wunderground v.1.15,2013-09-30 09:35:00,
2013-09-30 05:40:00,55.9,53.6,30.06,N/A,-737280,0.0,-999.0,92,0.00,,,0.00,Wunderground v.1.15,2013-09-30 09:40:00,
2013-09-30 05:45:00,55.2,52.9,30.06,N/A,-737280,0.0,-999.0,92,0.00,,,0.00,Wunderground v.1.15,2013-09-30 09:45:00,
2013-09-30 05:50:00,55.2,52.9,30.06,N/A,-737280,0.0,-999.0,92,0.00,,,0.00,Wunderground v.1.15,2013-09-30 09:50:00,
2013-09-30 05:55:00,55.2,52.9,30.06,N/A,-737280,0.0,-999.0,92,0.00,,,0.00,Wunderground v.1.15,2013-09-30 09:55:00,
2013-09-30 06:00:00,55.2,52.9,30.06,N/A,-737280,0.0,-999.0,92,0.00,,,0.00,Wunderground v.1.15,2013-09-30 10:00:00,
2013-09-30 06:05:00,55.2,52.9,30.06,N/A,-737280,0.0,-999.0,92,0.00,,,0.00,Wunderground v.1.15,2013-09-30 10:05:00,
2013-09-30 06:10:00,55.2,52.9,30.06,N/A,-737280,0.0,-999.0,92,0.00,,,0.00,Wunderground v.1.15,2013-09-30 10:10:00,
2013-09-30 06:15:00,55.0,53.0,30.07,N/A,-737280,0.0,-999.0,93,0.00,,,0.00,Wunderground v.1.15,2013-09-30 10:15:00,
2013-09-30 06:20:00,55.0,53.0,30.07,N/A,-737280,0.0,-999.0,93,0.00,,,0.00,Wunderground v.1.15,2013-09-30 10:20:00,
2013-09-30 06:25:00,55.0,53.0,30.07,N/A,-737280,0.0,-999.0,93,0.00,,,0.00,Wunderground v.1.15,2013-09-30 10:25:00,
2013-09-30 06:30:00,55.0,53.0,30.07,N/A,-737280,0.0,-999.0,93,0.00,,,0.00,Wunderground v.1.15,2013-09-30 10:30:00,
2013-09-30 06:35:00,55.0,53.0,30.07,N/A,-737280,0.0,-999.0,93,0.00,,,0.00,Wunderground v.1.15,2013-09-30 10:35:00,
2013-09-30 06:40:00,55.0,53.0,30.07,N/A,-737280,0.0,-999.0,93,0.00,,,0.00,Wunderground v.1.15,2013-09-30 10:40:00,
2013-09-30 06:45:00,54.9,52.9,30.08,N/A,-737280,0.0,-999.0,93,0.00,,,0.00,Wunderground v.1.15,2013-09-30 10:45:00,
2013-09-30 06:50:00,54.9,52.9,30.08,N/A,-737280,0.0,-999.0,93,0.00,,,0.00,Wunderground v.1.15,2013-09-30 10:50:00,
2013-09-30 06:55:00,54.9,52.9,30.08,N/A,-737280,0.0,-999.0,93,0.00,,,0.00,Wunderground v.1.15,2013-09-30 10:55:00,
2013-09-30 07:00:00,54.9,52.9,30.08,N/A,-737280,0.0,-999.0,93,0.00,,,0.00,Wunderground v.1.15,2013-09-30 11:00:00,
2013-09-30 07:05:00,54.9,52.9,30.08,N/A,-737280,0.0,-999.0,93,0.00,,,0.00,Wunderground v.1.15,2013-09-30 11:05:00,
2013-09-30 07:10:00,54.9,52.9,30.08,N/A,-737280,0.0,-999.0,93,0.00,,,0.00,Wunderground v.1.15,2013-09-30 11:10:00,
2013-09-30 07:15:00,55.1,53.1,30.08,N/A,-737280,0.0,-999.0,93,0.00,,,0.00,Wunderground v.1.15,2013-09-30 11:15:00,
2013-09-30 07:20:00,55.1,53.1,30.08,N/A,-737280,0.0,-999.0,93,0.00,,,0.00,Wunderground v.1.15,2013-09-30 11:20:00,
2013-09-30 07:25:00,55.1,53.1,30.08,N/A,-737280,0.0,-999.0,93,0.00,,,0.00,Wunderground v.1.15,2013-09-30 11:25:00,
2013-09-30 07:30:00,55.1,53.1,30.08,N/A,-737280,0.0,-999.0,93,0.00,,,0.00,Wunderground v.1.15,2013-09-30 11:30:00,
2013-09-30 07:35:00,55.1,53.1,30.08,N/A,-737280,0.0,-999.0,93,0.00,,,0.00,Wunderground v.1.15,2013-09-30 11:35:00,
2013-09-30 07:40:00,55.1,53.1,30.08,N/A,-737280,0.0,-999.0,93,0.00,,,0.00,Wunderground v.1.15,2013-09-30 11:40:00,
2013-09-30 07:45:00,55.3,53.3,30.09,N/A,-737280,0.0,-999.0,93,0.00,,,0.00,Wunderground v.1.15,2013-09-30 11:45:00,
2013-09-30 07:50:00,55.3,53.3,30.09,N/A,-737280,0.0,-999.0,93,0.00,,,0.00,Wunderground v.1.15,2013-09-30 11:50:00,
2013-09-30 07:55:00,55.3,53.3,30.09,N/A,-737280,0.0,-999.0,93,0.00,,,0.00,Wunderground v.1.15,2013-09-30 11:55:00,
2013-09-30 08:00:00,55.3,53.3,30.09,N/A,-737280,0.0,-999.0,93,0.00,,,0.00,Wunderground v.1.15,2013-09-30 12:00:00,
2013-09-30 08:05:00,55.3,53.3,30.09,N/A,-737280,0.0,-999.0,93,0.00,,,0.00,Wunderground v.1.15,2013-09-30 12:05:00,
2013-09-30 08:10:00,55.3,53.3,30.09,N/A,-737280,0.0,-999.0,93,0.00,,,0.00,Wunderground v.1.15,2013-09-30 12:10:00,
2013-09-30 08:15:00,56.5,54.8,30.09,N/A,-737280,0.0,-999.0,94,0.00,,,0.00,Wunderground v.1.15,2013-09-30 12:15:00,
2013-09-30 08:20:00,56.5,54.8,30.09,N/A,-737280,0.0,-999.0,94,0.00,,,0.00,Wunderground v.1.15,2013-09-30 12:20:00,
2013-09-30 08:25:00,56.5,54.8,30.09,N/A,-737280,0.0,-999.0,94,0.00,,,0.00,Wunderground v.1.15,2013-09-30 12:25:00,
2013-09-30 08:30:00,56.5,54.8,30.09,N/A,-737280,0.0,-999.0,94,0.00,,,0.00,Wunderground v.1.15,2013-09-30 12:30:00,
2013-09-30 08:35:00,56.5,54.8,30.09,N/A,-737280,0.0,-999.0,94,0.00,,,0.00,Wunderground v.1.15,2013-09-30 12:35:00,
2013-09-30 08:40:00,56.5,54.8,30.09,N/A,-737280,0.0,-999.0,94,0.00,,,0.00,Wunderground v.1.15,2013-09-30 12:40:00,
2013-09-30 08:45:00,57.7,56.0,30.09,NW,315,0.0,-999.0,94,0.00,,,0.00,Wunderground v.1.15,2013-09-30 12:45:00,
2013-09-30 08:50:00,57.7,56.0,30.09,NW,315,0.0,-999.0,94,0.00,,,0.00,Wunderground v.1.15,2013-09-30 12:50:00,
2013-09-30 08:55:00,57.7,56.0,30.09,NW,315,0.0,-999.0,94,0.00,,,0.00,Wunderground v.1.15,2013-09-30 12:55:00,
2013-09-30 09:00:00,57.7,56.0,30.09,NW,315,0.0,-999.0,94,0.00,,,0.00,Wunderground v.1.15,2013-09-30 13:00:00,
2013-09-30 09:05:00,57.7,56.0,30.09,NW,315,0.0,-999.0,94,0.00,,,0.00,Wunderground v.1.15,2013-09-30 13:05:00,
2013-09-30 09:10:00,57.7,56.0,30.09,NW,315,0.0,-999.0,94,0.00,,,0.00,Wunderground v.1.15,2013-09-30 13:10:00,
2013-09-30 09:15:00,61.5,58.2,30.10,NW,315,0.0,-999.0,89,0.00,,,0.00,Wunderground v.1.15,2013-09-30 13:15:00,
2013-09-30 09:20:00,61.5,58.2,30.10,NW,315,0.0,-999.0,89,0.00,,,0.00,Wunderground v.1.15,2013-09-30 13:20:00,
2013-09-30 09:25:00,61.5,58.2,30.10,NW,315,0.0,-999.0,89,0.00,,,0.00,Wunderground v.1.15,2013-09-30 13:25:00,
2013-09-30 09:30:00,61.5,58.2,30.10,NW,315,0.0,-999.0,89,0.00,,,0.00,Wunderground v.1.15,2013-09-30 13:30:00,
2013-09-30 09:35:00,61.5,58.2,30.10,NW,315,0.0,-999.0,89,0.00,,,0.00,Wunderground v.1.15,2013-09-30 13:35:00,
2013-09-30 09:40:00,61.5,58.2,30.10,NW,315,0.0,-999.0,89,0.00,,,0.00,Wunderground v.1.15,2013-09-30 13:40:00,
2013-09-30 09:45:00,64.3,58.7,30.10,ENE,68,0.0,-999.0,82,0.00,,,0.00,Wunderground v.1.15,2013-09-30 13:45:00,
2013-09-30 09:50:00,64.3,58.7,30.10,ENE,68,0.0,-999.0,82,0.00,,,0.00,Wunderground v.1.15,2013-09-30 13:50:00,
2013-09-30 09:55:00,64.3,58.7,30.10,ENE,68,0.0,-999.0,82,0.00,,,0.00,Wunderground v.1.15,2013-09-30 13:55:00,
2013-09-30 10:00:00,64.3,58.7,30.10,ENE,68,0.0,-999.0,82,0.00,,,0.00,Wunderground v.1.15,2013-09-30 14:00:00,
2013-09-30 10:05:00,64.3,58.7,30.10,ENE,68,0.0,-999.0,82,0.00,,,0.00,Wunderground v.1.15,2013-09-30 14:05:00,
2013-09-30 10:10:00,64.3,58.7,30.10,ENE,68,0.0,-999.0,82,0.00,,,0.00,Wunderground v.1.15,2013-09-30 14:10:00,
2013-09-30 10:15:00,68.3,61.5,30.10,ENE,68,0.0,-999.0,79,0.00,,,0.00,Wunderground v.1.15,2013-09-30 14:15:00,
2013-09-30 10:20:00,68.3,61.5,30.10,ENE,68,0.0,-999.0,79,0.00,,,0.00,Wunderground v.1.15,2013-09-30 14:20:00,
2013-09-30 10:25:00,68.3,61.5,30.10,ENE,68,0.0,-999.0,79,0.00,,,0.00,Wunderground v.1.15,2013-09-30 14:25:00,
2013-09-30 10:30:00,68.3,61.5,30.10,ENE,68,0.0,-999.0,79,0.00,,,0.00,Wunderground v.1.15,2013-09-30 14:30:00,
2013-09-30 10:35:00,68.3,61.5,30.10,ENE,68,0.0,-999.0,79,0.00,,,0.00,Wunderground v.1.15,2013-09-30 14:35:00,
2013-09-30 10:40:00,68.3,61.5,30.10,ENE,68,0.0,-999.0,79,0.00,,,0.00,Wunderground v.1.15,2013-09-30 14:40:00,
2013-09-30 10:45:00,71.8,61.1,30.09,NE,45,0.0,-999.0,69,0.00,,,0.00,Wunderground v.1.15,2013-09-30 14:45:00,
2013-09-30 10:50:00,71.8,61.1,30.09,NE,45,0.0,-999.0,69,0.00,,,0.00,Wunderground v.1.15,2013-09-30 14:50:00,
2013-09-30 10:55:00,71.8,61.1,30.09,NE,45,0.0,-999.0,69,0.00,,,0.00,Wunderground v.1.15,2013-09-30 14:55:00,
2013-09-30 11:00:00,71.8,61.1,30.09,NE,45,0.0,-999.0,69,0.00,,,0.00,Wunderground v.1.15,2013-09-30 15:00:00,
2013-09-30 11:30:00,73.2,60.3,30.08,South,172,0.0,0.0,64,0.00,,,0.00,Wunderground v.1.15,2013-09-30 15:30:00,
2013-09-30 11:35:00,73.0,59.2,30.08,South,172,0.0,0.0,62,0.00,,,0.00,Wunderground v.1.15,2013-09-30 15:35:00,
2013-09-30 11:40:00,72.8,59.0,30.08,South,189,0.0,0.0,62,0.00,,,0.00,Wunderground v.1.15,2013-09-30 15:40:00,
2013-09-30 11:45:00,73.1,58.4,30.08,SSE,158,0.0,2.0,60,0.00,,,0.00,Wunderground v.1.15,2013-09-30 15:45:00,
2013-09-30 11:50:00,73.0,57.8,30.08,SSE,161,0.0,0.0,59,0.00,,,0.00,Wunderground v.1.15,2013-09-30 15:50:00,
2013-09-30 11:55:00,73.1,57.9,30.08,SSW,209,0.0,0.0,59,0.00,,,0.00,Wunderground v.1.15,2013-09-30 15:55:00,
2013-09-30 12:00:00,73.6,58.9,30.07,NW,321,0.0,0.0,60,0.00,,,0.00,Wunderground v.1.15,2013-09-30 16:00:00,
2013-09-30 12:05:00,73.8,59.0,30.07,SSW,210,0.0,4.0,60,0.00,,,0.00,Wunderground v.1.15,2013-09-30 16:05:00,
2013-09-30 12:10:00,74.1,57.9,30.07,South,169,1.0,1.0,57,0.00,,,0.00,Wunderground v.1.15,2013-09-30 16:10:00,
2013-09-30 12:15:00,74.3,59.5,30.07,East,80,0.0,4.0,60,0.00,,,0.00,Wunderground v.1.15,2013-09-30 16:15:00,
2013-09-30 12:20:00,74.1,57.4,30.07,WNW,294,0.0,4.0,56,0.00,,,0.00,Wunderground v.1.15,2013-09-30 16:20:00,
2013-09-30 12:25:00,73.9,59.6,30.07,WNW,288,0.0,4.0,61,0.00,,,0.00,Wunderground v.1.15,2013-09-30 16:25:00,
2013-09-30 12:30:00,73.9,57.7,30.07,NW,310,0.0,4.0,57,0.00,,,0.00,Wunderground v.1.15,2013-09-30 16:30:00,
2013-09-30 12:35:00,74.3,59.5,30.06,West,270,0.0,4.0,60,0.00,,,0.00,Wunderground v.1.15,2013-09-30 16:35:00,
2013-09-30 12:40:00,74.3,59.5,30.06,West,270,0.0,4.0,60,0.00,,,0.00,Wunderground v.1.15,2013-09-30 16:40:00,
2013-09-30 12:45:00,74.0,58.8,30.06,West,271,1.0,4.0,59,0.00,,,0.00,Wunderground v.1.15,2013-09-30 16:45:00,
2013-09-30 12:50:00,73.9,58.7,30.06,West,271,0.0,4.0,59,0.00,,,0.00,Wunderground v.1.15,2013-09-30 16:50:00,
2013-09-30 12:55:00,73.9,58.7,30.06,West,278,0.0,4.0,59,0.00,,,0.00,Wunderground v.1.15,2013-09-30 16:55:00,
2013-09-30 13:00:00,73.8,59.5,30.06,West,277,1.0,1.0,61,0.00,,,0.00,Wunderground v.1.15,2013-09-30 17:00:00,
2013-09-30 13:05:00,73.9,57.7,30.06,NE,36,1.0,2.0,57,0.00,,,0.00,Wunderground v.1.15,2013-09-30 17:05:00,
2013-09-30 13:10:00,74.2,58.5,30.06,ESE,107,0.0,4.0,58,0.00,,,0.00,Wunderground v.1.15,2013-09-30 17:10:00,
2013-09-30 13:15:00,74.7,58.0,30.06,ESE,119,1.0,4.0,56,0.00,,,0.00,Wunderground v.1.15,2013-09-30 17:15:00,
2013-09-30 13:20:00,75.3,59.5,30.05,ESE,122,0.0,4.0,58,0.00,,,0.00,Wunderground v.1.15,2013-09-30 17:20:00,
2013-09-30 13:25:00,75.8,58.5,30.05,ESE,122,0.0,4.0,55,0.00,,,0.00,Wunderground v.1.15,2013-09-30 17:25:00,
2013-09-30 13:30:00,75.9,59.1,30.05,NW,325,1.0,1.0,56,0.00,,,0.00,Wunderground v.1.15,2013-09-30 17:30:00,
2013-09-30 13:35:00,76.1,59.3,30.05,North,5,1.0,4.0,56,0.00,,,0.00,Wunderground v.1.15,2013-09-30 17:35:00,
2013-09-30 13:40:00,76.5,60.6,30.05,North,5,0.0,4.0,58,0.00,,,0.00,Wunderground v.1.15,2013-09-30 17:40:00,
2013-09-30 13:50:00,77.5,59.0,30.05,WNW,286,0.0,4.0,53,0.00,,,0.00,Wunderground v.1.15,2013-09-30 17:50:00,
2013-09-30 13:55:00,76.7,58.3,30.04,West,261,1.0,4.0,53,0.00,,,0.00,Wunderground v.1.15,2013-09-30 17:55:00,
2013-09-30 14:00:00,75.6,57.3,30.04,West,263,2.0,4.0,53,0.00,,,0.00,Wunderground v.1.15,2013-09-30 18:00:00,
2013-09-30 14:05:00,75.0,58.2,30.03,West,263,1.0,4.0,56,0.00,,,0.00,Wunderground v.1.15,2013-09-30 18:05:00,
2013-09-30 14:10:00,75.3,59.0,30.03,WSW,246,0.0,4.0,57,0.00,,,0.00,Wunderground v.1.15,2013-09-30 18:10:00,
2013-09-30 14:15:00,75.7,57.9,30.03,SSW,194,0.0,4.0,54,0.00,,,0.00,Wunderground v.1.15,2013-09-30 18:15:00,
2013-09-30 14:20:00,76.3,60.4,30.03,WSW,242,0.0,4.0,58,0.00,,,0.00,Wunderground v.1.15,2013-09-30 18:20:00,
2013-09-30 14:30:00,76.6,58.7,30.02,WSW,238,0.0,4.0,54,0.00,,,0.00,Wunderground v.1.15,2013-09-30 18:30:00,
2013-09-30 14:35:00,76.4,58.0,30.02,West,281,1.0,4.0,53,0.00,,,0.00,Wunderground v.1.15,2013-09-30 18:35:00,
2013-09-30 14:40:00,76.3,57.4,30.02,SSW,211,1.0,4.0,52,0.00,,,0.00,Wunderground v.1.15,2013-09-30 18:40:00,
2013-09-30 14:45:00,76.2,59.4,30.02,SW,227,1.0,4.0,56,0.00,,,0.00,Wunderground v.1.15,2013-09-30 18:45:00,
2013-09-30 14:50:00,76.3,57.4,30.02,WSW,248,1.0,4.0,52,0.00,,,0.00,Wunderground v.1.15,2013-09-30 18:50:00,
2013-09-30 14:55:00,76.2,57.8,30.02,WSW,250,1.0,4.0,53,0.00,,,0.00,Wunderground v.1.15,2013-09-30 18:55:00,
2013-09-30 15:00:00,76.0,57.1,30.02,WSW,244,1.0,4.0,52,0.00,,,0.00,Wunderground v.1.15,2013-09-30 19:00:00,
2013-09-30 15:05:00,75.8,57.4,30.01,West,259,2.0,4.0,53,0.00,,,0.00,Wunderground v.1.15,2013-09-30 19:05:00,
2013-09-30 15:10:00,75.4,58.1,30.01,West,261,2.0,2.0,55,0.00,,,0.00,Wunderground v.1.15,2013-09-30 19:10:00,
2013-09-30 15:15:00,75.3,55.9,30.01,SW,236,3.0,4.0,51,0.00,,,0.00,Wunderground v.1.15,2013-09-30 19:15:00,
2013-09-30 15:20:00,75.0,57.2,30.01,SW,236,2.0,2.0,54,0.00,,,0.00,Wunderground v.1.15,2013-09-30 19:20:00,
2013-09-30 15:25:00,75.0,56.2,30.01,WSW,247,2.0,4.0,52,0.00,,,0.00,Wunderground v.1.15,2013-09-30 19:25:00,
2013-09-30 15:30:00,75.4,58.6,30.01,WSW,247,1.0,1.0,56,0.00,,,0.00,Wunderground v.1.15,2013-09-30 19:30:00,
2013-09-30 15:35:00,75.7,57.4,30.01,West,265,1.0,4.0,53,0.00,,,0.00,Wunderground v.1.15,2013-09-30 19:35:00,
2013-09-30 15:40:00,75.9,56.5,30.01,SSW,211,1.0,1.0,51,0.00,,,0.00,Wunderground v.1.15,2013-09-30 19:40:00,
2013-09-30 15:45:00,75.9,55.4,30.01,SW,226,1.0,4.0,49,0.00,,,0.00,Wunderground v.1.15,2013-09-30 19:45:00,
2013-09-30 15:50:00,75.7,55.7,30.00,WSW,256,1.0,4.0,50,0.00,,,0.00,Wunderground v.1.15,2013-09-30 19:50:00,
2013-09-30 15:55:00,76.0,57.1,30.00,WSW,257,1.0,4.0,52,0.00,,,0.00,Wunderground v.1.15,2013-09-30 19:55:00,
2013-09-30 16:00:00,76.2,56.2,30.01,WSW,250,1.0,1.0,50,0.00,,,0.00,Wunderground v.1.15,2013-09-30 20:00:00,
2013-09-30 16:05:00,76.2,56.2,30.00,WSW,240,2.0,2.0,50,0.00,,,0.00,Wunderground v.1.15,2013-09-30 20:05:00,
2013-09-30 16:10:00,76.1,55.5,30.00,WSW,256,2.0,4.0,49,0.00,,,0.00,Wunderground v.1.15,2013-09-30 20:10:00,
2013-09-30 16:15:00,76.2,57.8,30.00,WSW,239,1.0,4.0,53,0.00,,,0.00,Wunderground v.1.15,2013-09-30 20:15:00,
2013-09-30 16:20:00,76.1,55.5,30.00,SW,236,2.0,4.0,49,0.00,,,0.00,Wunderground v.1.15,2013-09-30 20:20:00,
2013-09-30 16:25:00,75.9,57.0,30.00,WSW,238,2.0,4.0,52,0.00,,,0.00,Wunderground v.1.15,2013-09-30 20:25:00,
2013-09-30 16:30:00,76.2,57.3,30.00,WSW,246,2.0,2.0,52,0.00,,,0.00,Wunderground v.1.15,2013-09-30 20:30:00,
2013-09-30 16:35:00,76.4,55.8,30.00,East,88,1.0,4.0,49,0.00,,,0.00,Wunderground v.1.15,2013-09-30 20:35:00,
2013-09-30 16:40:00,76.5,56.5,30.00,WSW,251,1.0,4.0,50,0.00,,,0.00,Wunderground v.1.15,2013-09-30 20:40:00,
2013-09-30 16:45:00,76.6,56.6,30.00,SW,232,2.0,4.0,50,0.00,,,0.00,Wunderground v.1.15,2013-09-30 20:45:00,
2013-09-30 16:50:00,76.7,57.2,30.00,WSW,248,1.0,1.0,51,0.00,,,0.00,Wunderground v.1.15,2013-09-30 20:50:00,
2013-09-30 16:55:00,77.0,56.9,30.00,SW,232,0.0,4.0,50,0.00,,,0.00,Wunderground v.1.15,2013-09-30 20:55:00,
2013-09-30 17:00:00,77.2,55.4,30.00,West,266,1.0,4.0,47,0.00,,,0.00,Wunderground v.1.15,2013-09-30 21:00:00,
2013-09-30 17:05:00,76.7,57.2,30.00,WSW,247,2.0,4.0,51,0.00,,,0.00,Wunderground v.1.15,2013-09-30 21:05:00,
2013-09-30 17:10:00,76.5,57.0,30.00,WSW,241,2.0,3.0,51,0.00,,,0.00,Wunderground v.1.15,2013-09-30 21:10:00,
2013-09-30 17:15:00,76.3,56.8,30.00,WSW,252,2.0,3.0,51,0.00,,,0.00,Wunderground v.1.15,2013-09-30 21:15:00,
2013-09-30 17:20:00,76.5,56.5,30.00,WSW,252,1.0,1.0,50,0.00,,,0.00,Wunderground v.1.15,2013-09-30 21:20:00,
2013-09-30 17:25:00,77.0,57.5,30.00,WSW,252,0.0,1.0,51,0.00,,,0.00,Wunderground v.1.15,2013-09-30 21:25:00,
2013-09-30 17:30:00,77.6,56.9,30.00,WSW,252,0.0,0.0,49,0.00,,,0.00,Wunderground v.1.15,2013-09-30 21:30:00,
2013-09-30 17:35:00,78.1,57.9,30.00,WSW,252,0.0,0.0,50,0.00,,,0.00,Wunderground v.1.15,2013-09-30 21:35:00,
2013-09-30 17:40:00,78.5,57.7,30.00,WSW,252,0.0,0.0,49,0.00,,,0.00,Wunderground v.1.15,2013-09-30 21:40:00,
2013-09-30 17:45:00,79.1,57.7,30.00,WSW,252,0.0,0.0,48,0.00,,,0.00,Wunderground v.1.15,2013-09-30 21:45:00,
2013-09-30 17:50:00,79.2,57.2,30.00,WSW,252,0.0,0.0,47,0.00,,,0.00,Wunderground v.1.15,2013-09-30 21:50:00,
2013-09-30 17:55:00,79.1,56.5,30.00,WSW,252,0.0,0.0,46,0.00,,,0.00,Wunderground v.1.15,2013-09-30 21:55:00,
2013-09-30 18:00:00,78.9,57.5,30.00,WSW,252,0.0,0.0,48,0.00,,,0.00,Wunderground v.1.15,2013-09-30 22:00:00,
2013-09-30 18:05:00,78.8,58.0,30.00,WSW,252,0.0,4.0,49,0.00,,,0.00,Wunderground v.1.15,2013-09-30 22:05:00,
2013-09-30 18:10:00,78.4,57.7,30.00,WSW,252,0.0,4.0,49,0.00,,,0.00,Wunderground v.1.15,2013-09-30 22:10:00,
2013-09-30 18:15:00,78.4,58.2,30.01,WSW,252,0.0,4.0,50,0.00,,,0.00,Wunderground v.1.15,2013-09-30 22:15:00,
2013-09-30 18:20:00,78.8,59.7,30.01,WSW,252,0.0,4.0,52,0.00,,,0.00,Wunderground v.1.15,2013-09-30 22:20:00,
2013-09-30 18:30:00,79.6,58.8,30.01,WSW,252,0.0,4.0,49,0.00,,,0.00,Wunderground v.1.15,2013-09-30 22:30:00,
2013-09-30 18:35:00,79.5,58.1,30.01,WSW,252,0.0,4.0,48,0.00,,,0.00,Wunderground v.1.15,2013-09-30 22:35:00,
2013-09-30 18:40:00,79.0,57.6,30.01,WSW,252,0.0,4.0,48,0.00,,,0.00,Wunderground v.1.15,2013-09-30 22:40:00,
2013-09-30 18:45:00,78.3,58.1,30.01,WSW,252,0.0,4.0,50,0.00,,,0.00,Wunderground v.1.15,2013-09-30 22:45:00,
2013-09-30 18:50:00,77.4,57.9,30.01,WSW,252,0.0,4.0,51,0.00,,,0.00,Wunderground v.1.15,2013-09-30 22:50:00,
2013-09-30 18:55:00,76.5,57.6,30.01,WSW,252,0.0,4.0,52,0.00,,,0.00,Wunderground v.1.15,2013-09-30 22:55:00,
2013-09-30 19:00:00,75.4,57.1,30.02,WSW,252,0.0,4.0,53,0.00,,,0.00,Wunderground v.1.15,2013-09-30 23:00:00,
2013-09-30 19:05:00,74.3,57.6,30.02,WSW,252,0.0,4.0,56,0.00,,,0.00,Wunderground v.1.15,2013-09-30 23:05:00,
2013-09-30 19:10:00,73.1,57.0,30.02,WSW,252,0.0,4.0,57,0.00,,,0.00,Wunderground v.1.15,2013-09-30 23:10:00,
2013-09-30 19:15:00,72.1,56.5,30.02,WSW,252,0.0,4.0,58,0.00,,,0.00,Wunderground v.1.15,2013-09-30 23:15:00,
2013-09-30 19:20:00,71.1,56.0,30.02,WSW,252,0.0,4.0,59,0.00,,,0.00,Wunderground v.1.15,2013-09-30 23:20:00,
2013-09-30 19:25:00,70.3,55.8,30.02,WSW,252,0.0,4.0,60,0.00,,,0.00,Wunderground v.1.15,2013-09-30 23:25:00,
2013-09-30 19:30:00,69.6,55.6,30.02,WSW,252,0.0,4.0,61,0.00,,,0.00,Wunderground v.1.15,2013-09-30 23:30:00,
2013-09-30 19:35:00,69.0,55.4,30.02,WSW,252,0.0,4.0,62,0.00,,,0.00,Wunderground v.1.15,2013-09-30 23:35:00,
2013-09-30 19:40:00,68.4,55.7,30.02,WSW,252,0.0,4.0,64,0.00,,,0.00,Wunderground v.1.15,2013-09-30 23:40:00,
2013-09-30 19:45:00,67.8,55.2,30.02,WSW,252,0.0,4.0,64,0.00,,,0.00,Wunderground v.1.15,2013-09-30 23:45:00,
2013-09-30 19:50:00,67.3,55.1,30.02,WSW,252,0.0,4.0,65,0.00,,,0.00,Wunderground v.1.15,2013-09-30 23:50:00,
2013-09-30 20:00:00,66.5,55.2,30.02,WSW,252,0.0,4.0,67,0.00,,,0.00,Wunderground v.1.15,2013-10-01 00:00:00,
2013-09-30 20:05:00,66.1,55.6,30.03,WSW,252,0.0,4.0,69,0.00,,,0.00,Wunderground v.1.15,2013-10-01 00:05:00,
2013-09-30 20:10:00,65.9,55.4,30.03,WSW,252,0.0,4.0,69,0.00,,,0.00,Wunderground v.1.15,2013-10-01 00:10:00,
2013-09-30 20:15:00,65.6,55.5,30.03,WSW,252,0.0,4.0,70,0.00,,,0.00,Wunderground v.1.15,2013-10-01 00:15:00,
2013-09-30 20:20:00,65.3,55.7,30.03,WSW,252,0.0,4.0,71,0.00,,,0.00,Wunderground v.1.15,2013-10-01 00:20:00,
2013-09-30 20:25:00,65.1,55.5,30.03,WSW,252,0.0,4.0,71,0.00,,,0.00,Wunderground v.1.15,2013-10-01 00:25:00,
2013-09-30 20:30:00,64.9,56.0,30.03,WSW,252,0.0,4.0,73,0.00,,,0.00,Wunderground v.1.15,2013-10-01 00:30:00,
2013-09-30 20:35:00,64.9,57.2,30.04,WSW,252,0.0,4.0,76,0.00,,,0.00,Wunderground v.1.15,2013-10-01 00:35:00,
2013-09-30 20:40:00,64.9,57.9,30.04,WSW,252,0.0,4.0,78,0.00,,,0.00,Wunderground v.1.15,2013-10-01 00:40:00,
2013-09-30 20:45:00,65.1,58.8,30.04,WSW,252,0.0,4.0,80,0.00,,,0.00,Wunderground v.1.15,2013-10-01 00:45:00,
2013-09-30 20:50:00,65.3,58.6,30.04,WSW,252,0.0,4.0,79,0.00,,,0.00,Wunderground v.1.15,2013-10-01 00:50:00,
2013-09-30 20:55:00,65.4,58.4,30.04,WSW,252,0.0,4.0,78,0.00,,,0.00,Wunderground v.1.15,2013-10-01 00:55:00,
2013-09-30 21:00:00,65.6,58.6,30.04,WSW,252,0.0,4.0,78,0.00,,,0.00,Wunderground v.1.15,2013-10-01 01:00:00,
2013-09-30 21:05:00,65.7,58.7,30.04,WSW,252,0.0,4.0,78,0.00,,,0.00,Wunderground v.1.15,2013-10-01 01:05:00,
2013-09-30 21:10:00,65.9,58.8,30.05,WSW,252,0.0,4.0,78,0.00,,,0.00,Wunderground v.1.15,2013-10-01 01:10:00,
2013-09-30 21:15:00,66.1,58.7,30.05,WSW,252,0.0,4.0,77,0.00,,,0.00,Wunderground v.1.15,2013-10-01 01:15:00,
2013-09-30 21:20:00,66.4,59.0,30.05,WSW,252,0.0,4.0,77,0.00,,,0.00,Wunderground v.1.15,2013-10-01 01:20:00,
2013-09-30 21:25:00,66.6,58.8,30.05,WSW,252,0.0,4.0,76,0.00,,,0.00,Wunderground v.1.15,2013-10-01 01:25:00,
2013-09-30 21:30:00,66.8,59.0,30.05,WSW,252,0.0,4.0,76,0.00,,,0.00,Wunderground v.1.15,2013-10-01 01:30:00,
2013-09-30 21:35:00,66.9,58.7,30.05,WSW,252,0.0,4.0,75,0.00,,,0.00,Wunderground v.1.15,2013-10-01 01:35:00,
2013-09-30 21:40:00,67.1,58.9,30.05,WSW,252,0.0,4.0,75,0.00,,,0.00,Wunderground v.1.15,2013-10-01 01:40:00,
2013-09-30 21:45:00,67.4,59.2,30.05,WSW,252,0.0,4.0,75,0.00,,,0.00,Wunderground v.1.15,2013-10-01 01:45:00,
2013-09-30 21:50:00,67.6,59.0,30.05,WSW,252,0.0,4.0,74,0.00,,,0.00,Wunderground v.1.15,2013-10-01 01:50:00,
2013-09-30 21:55:00,67.9,59.3,30.06,WSW,252,0.0,4.0,74,0.00,,,0.00,Wunderground v.1.15,2013-10-01 01:55:00,
2013-09-30 22:00:00,68.2,59.6,30.06,WNW,284,0.0,4.0,74,0.00,,,0.00,Wunderground v.1.15,2013-10-01 02:00:00,
2013-09-30 22:05:00,68.4,59.4,30.05,WNW,302,0.0,4.0,73,0.00,,,0.00,Wunderground v.1.15,2013-10-01 02:05:00,
2013-09-30 22:10:00,68.6,59.6,30.06,NW,311,0.0,4.0,73,0.00,,,0.00,Wunderground v.1.15,2013-10-01 02:10:00,
2013-09-30 22:15:00,68.7,60.1,30.06,NW,311,0.0,4.0,74,0.00,,,0.00,Wunderground v.1.15,2013-10-01 02:15:00,
2013-09-30 22:20:00,68.8,60.2,30.06,NE,40,0.0,4.0,74,0.00,,,0.00,Wunderground v.1.15,2013-10-01 02:20:00,
2013-09-30 22:25:00,69.0,60.0,30.06,North,350,0.0,4.0,73,0.00,,,0.00,Wunderground v.1.15,2013-10-01 02:25:00,
2013-09-30 22:30:00,69.1,60.1,30.06,North,350,0.0,4.0,73,0.00,,,0.00,Wunderground v.1.15,2013-10-01 02:30:00,
2013-09-30 22:35:00,69.2,60.2,30.06,North,351,0.0,4.0,73,0.00,,,0.00,Wunderground v.1.15,2013-10-01 02:35:00,
2013-09-30 22:40:00,69.3,59.9,30.06,WNW,294,0.0,4.0,72,0.00,,,0.00,Wunderground v.1.15,2013-10-01 02:40:00,
2013-09-30 22:45:00,69.4,59.6,30.06,WNW,294,0.0,4.0,71,0.00,,,0.00,Wunderground v.1.15,2013-10-01 02:45:00,
2013-09-30 22:50:00,69.5,59.7,30.06,NE,40,0.0,4.0,71,0.00,,,0.00,Wunderground v.1.15,2013-10-01 02:50:00,
2013-09-30 22:55:00,69.5,60.1,30.06,NE,40,0.0,4.0,72,0.00,,,0.00,Wunderground v.1.15,2013-10-01 02:55:00,
2013-09-30 23:00:00,69.5,59.7,30.06,NE,53,0.0,4.0,71,0.00,,,0.00,Wunderground v.1.15,2013-10-01 03:00:00,
2013-09-30 23:05:00,69.4,59.6,30.06,NE,53,0.0,4.0,71,0.00,,,0.00,Wunderground v.1.15,2013-10-01 03:05:00,
2013-09-30 23:10:00,69.5,59.7,30.06,WNW,294,0.0,4.0,71,0.00,,,0.00,Wunderground v.1.15,2013-10-01 03:10:00,
2013-09-30 23:15:00,69.5,60.1,30.06,WNW,294,0.0,4.0,72,0.00,,,0.00,Wunderground v.1.15,2013-10-01 03:15:00,
2013-09-30 23:20:00,69.4,60.0,30.06,WNW,292,0.0,4.0,72,0.00,,,0.00,Wunderground v.1.15,2013-10-01 03:20:00,
2013-09-30 23:25:00,69.3,60.3,30.06,WSW,252,0.0,4.0,73,0.00,,,0.00,Wunderground v.1.15,2013-10-01 03:25:00,
2013-09-30 23:30:00,69.2,60.2,30.06,West,271,1.0,4.0,73,0.00,,,0.00,Wunderground v.1.15,2013-10-01 03:30:00,
2013-09-30 23:35:00,69.2,60.6,30.06,WSW,248,1.0,-999.0,74,0.00,,,0.00,Wunderground v.1.15,2013-10-01 03:35:00,
2013-09-30 23:40:00,69.2,60.6,30.06,WSW,248,1.0,-999.0,74,0.00,,,0.00,Wunderground v.1.15,2013-10-01 03:40:00,
2013-09-30 23:45:00,68.3,60.1,30.06,West,270,1.0,-999.0,75,0.00,,,0.00,Wunderground v.1.15,2013-10-01 03:45:00,
2013-09-30 23:50:00,68.3,60.1,30.06,West,270,1.0,-999.0,75,0.00,,,0.00,Wunderground v.1.15,2013-10-01 03:50:00,
2013-09-30 23:55:00,68.3,60.1,30.06,West,270,1.0,-999.0,75,0.00,,,0.00,Wunderground v.1.15,2013-10-01 03:55:00,